Location: ?astrovice
(49.6513°N, 14.9287°E)
Time: 18:39:49
(UTC+00:00)

SeaSat 1 - Pass Details

Date: 09 April 2020
Orbit: 745 x 746 km, 108.0° (Epoch: 01 June)

Event Time Altitude Azimuth Distance (km) Brightness Sun altitude
Rises 18:11:07 0° 30° (NNE) 3,201 5.6 -4.9°
Reaches altitude 10° 18:13:24 10° 31° (NNE) 2,273 4.8 -5.3°
Maximum altitude 18:18:22 80° 119° (ESE) 764 2.4 -6.0°
Drops below altitude 10° 18:23:17 10° 207° (SSW) 2,258 5.0 -6.8°
Sets 18:25:32 0° 208° (SSW) 3,178 5.8 -7.1°
